Find Local Weather

World > North America > United States > Pennsylvania

Connie Mack Stadium, Pennsylvania Regional Weather

Lat: 40.00N, Lon: 75.17W
Wx Zone: PAZ071
Feedback
Expires:201808190400;;284926
ASUS41 KPHI 190313
RWRPHI

REGIONAL WEATHER ROUNDUP
NATIONAL WEATHER SERVICE MOUNT HOLLY NJ
1100 PM EDT SAT AUG 18 2018

NOTE:  "FAIR" INDICATES FEW OR NO CLOUDS BELOW 12,000 FEET WITH NO
SIGNIFICANT WEATHER AND/OR OBSTRUCTIONS TO VISIBILITY.

 * = STATION DOES NOT REPORT PRECIPITATION (E.G. RAIN, SNOW, ETC.) 
        OR FOG.


PAZ043-044-047-054-055-060>062-066>071-190400-
EASTERN PENNSYLVANIA
  
CITY           SKY/WX    TMP DP  RH WIND       PRES   REMARKS
PHILADELPHIA   MOCLDY    76  71  85 NE3       29.84S                  
NORTH PHILA    FAIR      76  71  85 NE7       29.86S                  
BLUE BELL*     FAIR      72  70  94 CALM      29.86F                  
DOYLESTOWN     CLOUDY    73  72  96 NE5       29.86S                  
QUAKERTOWN*    MOCLDY    72  72 100 N3        29.87S                  
PERKASIE*      CLOUDY    72  72 100 NE3       29.88S                  
POTTSTOWN      CLOUDY    72  71  97 NW3       29.88R                  
LANCASTER      MOCLDY    74  71  91 N6        29.87S                  
COATESVILLE    FAIR      72  70  94 N5        29.88F                  
READING        FAIR      73  72  96 N3        29.86S                  
ALLENTOWN      CLOUDY    74  69  85 N7        29.88R                  
MOUNT POCONO   CLOUDY    65  63  93 NW9       29.94S                  
HAZLETON       CLOUDY    66  61  82 MISG      29.97S                  
LEHIGHTON      CLOUDY    72  63  73 CALM      29.90S                  
WILKES BARRE   CLOUDY    69  63  81 N6        29.92S                  

$$

SKY/WX - Weather  TMP - Temperature  DP - Dewpoint  RH - Relative Humidity
WIND - Wind Direction/Speed PRES - Barometric Pressure